Regional Weather Roundup
Issued by NWS

Home | Current Version | Previous Version | Text Only | Print | Product List | Glossary On
Versions: 1 2 3 4 5 6 7 8 9 10 11 12 13 14 15 16 17 18 19 20 21 22 23 24 25 26 27 28 29 30 31 32 33 34 35 36 37 38 39 40 41 42 43 44 45 46 47 48 49 50
000
ASUS43 KMKX 241910
RWRWI

WISCONSIN REGIONAL WEATHER ROUNDUP
NATIONAL WEATHER SERVICE MILWAUKEE/SULLIVAN WI
200 PM CDT SUN MAY 24 2015

NOTE: "FAIR" INDICATES FEW OR NO CLOUDS BELOW 12,000 FEET WITH NO
SIGNIFICANT WEATHER AND/OR OBSTRUCTIONS TO VISIBILITY.

WIZ001-002-006>008-014>016-023>028-242000-
NORTHWEST WISCONSIN

CITY           SKY/WX    TMP DP  RH WIND       PRES   REMARKS
SUPERIOR ARPT  CLOUDY    67  45  45 NE5       30.03F
ASHLAND        CLOUDY    74  50  42 N8        30.03F
HAYWARD        CLOUDY    73  47  39 S12       30.02F
SIREN          LGT RAIN  69  51  51 SE8       30.02F
CUMBERLAND     CLOUDY    64  50  59 SE10      30.04F
RICE LAKE      LGT RAIN  65  53  63 SE13      30.06S
CHETEK         LGT RAIN  63  56  79 E8        30.05F
LADYSMITH      CLOUDY    66  53  63 S13       30.08F
EAU CLAIRE     NOT AVBL
MENOMONIE      LGT RAIN  61  57  88 E12       30.04F
NEW RICHMOND   LGT RAIN  62  54  74 SE14G20   30.03S
OSCEOLA        CLOUDY    64  55  72 SE9       30.04F
$$

WIZ003>005-009-010-017-018-242000-
NORTH CENTRAL WISCONSIN

CITY           SKY/WX    TMP DP  RH WIND       PRES   REMARKS
MANITOWISH WTR CLOUDY    73  47  40 S12       30.06F
ARBOR VITAE    CLOUDY    74  48  39 S13       30.06F
WOODRUFF       CLOUDY    74  48  39 S13       30.06F
RHINELANDER    CLOUDY    73  45  36 S15       30.08F
EAGLE RIVER    CLOUDY    73  42  32 S9        30.07F
LAND O LAKES   CLOUDY    76  42  30 S8        30.08F
PHILLIPS       CLOUDY    71  50  46 S9        30.05F
TOMAHAWK       CLOUDY    69  51  54 S7        30.09F
MEDFORD        LGT RAIN  59  56  88 SE9       30.09F
MERRILL        CLOUDY    64  55  72 S10G16    30.12S
$$

WIZ029-030-035-036-043>047-242000-
CENTRAL WISCONSIN

CITY           SKY/WX    TMP DP  RH WIND       PRES   REMARKS
WAUSAU         LGT RAIN  62  55  77 S8        30.08F
MOSINEE        DRIZZLE   61  57  88 SE9       30.11F
MARSHFIELD     RAIN      60  54  80 SE12      30.08F
STEVENS POINT  LGT RAIN  58  56  91 SE6       30.12F
WAUPACA        DRIZZLE   62  58  87 SE6       30.13F
WAUTOMA        LGT RAIN  61  59  94 E5        30.12F FOG
WISC RAPIDS    LGT RAIN  59  55  87 SE9       30.09F
CAMP DOUGLAS   LGT RAIN  59  59 100 E12       30.06F FOG
$$

WIZ011>013-019>022-031-037>040-048>050-242000-
NORTHEAST WISCONSIN

CITY           SKY/WX    TMP DP  RH WIND       PRES   REMARKS
ANTIGO         CLOUDY    64  53  67 S13       30.12S
SHAWANO        DRIZZLE   67  55  64 SW3       30.13F
OCONTO         CLOUDY    69  54  58 SW13G20   30.12S
STURGEON BAY   CLOUDY    66  50  55 SW7       30.15F
GREEN BAY      LGT RAIN  63  57  81 S12       30.14F
MANITOWOC      NOT AVBL
APPLETON       DRIZZLE   61  54  77 SE6       30.13F
CLINTONVILLE   DRIZZLE   64  54  68 S13       30.13F
OSHKOSH        LGT RAIN  61  56  83 SE6       30.12F
$$

WIZ032>034-041-042-053>061-242000-
SOUTHWEST WISCONSIN

CITY           SKY/WX    TMP DP  RH WIND       PRES   REMARKS
LA CROSSE      RAIN      61  58  90 E9        30.00F FOG
SPARTA         RAIN      58  56  94 E9        30.05F
VIROQUA        CLOUDY    57  57 100 E13       30.03F
BOSCOBEL       LGT RAIN  61  57  87 NE7       30.01F FOG
PRAIRIE DU CHI DRIZZLE   59  56  89 E7        29.99F
PLATTEVILLE    CLOUDY    60  58  94 E16G23    30.01F
$$

WIZ056-057-062-063-064-067-068-242000-
SOUTH CENTRAL WISCONSIN

CITY           SKY/WX    TMP DP  RH WIND       PRES   REMARKS
REEDSBURG      LGT RAIN  57  56  97 E6        30.06F
BARABOO/DELLS  LGT RAIN  57  55  91 E9        30.07F
LONE ROCK      NOT AVBL
MINERAL POINT  CLOUDY    59  57  94 E12G22    30.02F
MADISON        LGT RAIN  60  56  86 E12       30.06F
MIDDLETON      CLOUDY    61  57  88 E8        30.07F
WATERTOWN      DRIZZLE   61  60  97 E10       30.09F
MONROE         RAIN      59  57  94 NE8       30.04F
JANESVILLE     CLOUDY    66  55  68 E15       30.04F
$$

WIZ051-052-058>065-066-070>072-242000-
SOUTHEAST WISCONSIN

CITY           SKY/WX    TMP DP  RH WIND       PRES   REMARKS
MILWAUKEE      LGT RAIN  61  54  77 NE6       30.12F
WAUKESHA       CLOUDY    61  54  77 NE8       30.12F
MILWAUKEE/TIMM CLOUDY    61  54  77 E6        30.12F
RACINE         LGT RAIN  56  49  77 E5        30.13F
BURLINGTON     CLOUDY    65  55  69 E7        30.09F
KENOSHA        LGT RAIN  61  53  75 E13       30.11F
FOND DU LAC    LGT RAIN  62  56  80 SE5       30.12F
SHEBOYGAN      LGT RAIN  63  56  78 S5        30.13F
WEST BEND      RAIN      63  55  77 E3        30.12F
JUNEAU         RAIN      61  56  85 E8        30.12F
$$

LSZ147-162-242000-
LAKE SUPERIOR

STATION/POSITION TIME  TEMP    WIND        PRES    WAVE
                       AIR SEA DIR/SP/G            HT/PER
                 (UTC) (F)     (DEG/KT/KT) (MB)    (FT/S)
W MID LAKE BUOY  1750   48 37   CALM  /  2   N/A     0
DEVILS ISLAND    1800   66     150/  1/  3   N/A
PORT WING        1840   52     350/  2/  4   N/A
SAXON HARBOR     1800   62        CALM       N/A
$$

LMZ867-665-643>646-242000-
LAKE MICHIGAN

STATION/POSITION TIME  TEMP    WIND        PRES    WAVE
                       AIR SEA DIR/SP/G            HT/PER
                 (UTC) (F)     (DEG/KT/KT) (MB)    (FT/S)
CHAMBERS ISLAND  1800   72     170/  3/  7   N/A
N MID LAKE BUOY  1750   42 36  190/ 10/ 12   N/A     0
NORTHPORT PIER   1800   54     160/  9/ 15   N/A
SISTER BAY       1832   66     160/  8/ 10   N/A
KEWAUNEE LAKESHO 1800   62     200/ 15/ 21   N/A
SHEBOYGAN LAKESH 1800   57     150/  7/  7   N/A
PORT WASHINGTON  1800   53      70/  3/  3   N/A
ATWATER BUOY     1800   49 46   50/  6/  6   N/A
MILWAUKEE LAKESH 1800   53      30/  9/ 10   N/A
S MID LAKE BUOY  1750   42 38   60/  4/  4   N/A     0
$$

TC  - TEMPERATURE IN CELSIUS
VSB - VISIBILITY IN STATUTE MILES
WCI - WIND CHILL INDEX
HX  - HEAT INDEX




USA.gov is the U.S. government's official web portal to all federal, state and local government web resources and services.